Погода в Сент-Джонсе

Антигуа и Барбуда     17°07′36″N   61°50′33″W
темп.,
°C
ветер,
м/с
пор.,
м/с
влажн.,
%
обл.,
%
осадки,
мм/ч
давл.,
гПа
погр.,
м
21 января, чт
чт2123:00+25в6775100 0.0 1015929
02:00+25всв5677100 0.1 1014772
05:00+25всв667813 0.6 1014757
08:00+25в66786 0.9 1016807
11:00+25в66800 0.0 1016755
14:00+26в55761 0.0 1014862
17:00+26в457335 0.0 1013971
20:00+26в557617 0.1 1015779
22 января, пт
пт2223:00+25в56800 0.1 1015679
02:00+25всв55790 0.4 1014565
05:00+25вюв56750 0.6 1014762
08:00+25вюв56755 0.6 1016830
11:00+26вюв56760 0.0 1017750
14:00+26в55730 0.0 1015805
17:00+26в557613 0.0 1015830
20:00+26в567721 0.0 1016747
23 января, сб
сб2323:00+25всв677869 0.0 1016799
02:00+25в777944 0.0 1015797
05:00+25в567888 0.0 1015715
08:00+25в567767 0.0 1017811
11:00+26в66770 0.1 1017804
14:00+26в557532 0.1 1016845
17:00+26всв557249 0.0 1014967
20:00+26всв457435 0.0 1016793
24 января, вс
вс2423:00+25всв56791 0.5 1016683
02:00+25в677814 1.2 1015784
05:00+25в67770 0.0 1015798
08:00+25в67760 0.0 1016939
11:00+25в56770 0.1 1017811
14:00+26в66733 0.5 1015852
17:00+25в56720 0.0 1014811
20:00+25всв66730 0.0 1015782
25 января, пн
пн2523:00+25всв67750 0.0 1015814
02:00+25всв78789 0.0 1014721
05:00+25всв787939 0.0 1014690
08:00+25всв787832 0.0 1016705
11:00+25всв78780 0.0 1017741
14:00+25в78740 0.0 1015829
17:00+25в78720 0.0 1014904
20:00+25всв78740 0.0 1016861